Location: Newark
(48.4472°N, 1.4892°E)
Time: 16:10:05
(UTC+00:00)

Transit 4A - Pass Details

Date: 26 November 2019
Orbit: 870 x 975 km, 66.8° (Epoch: 08 December)

Event Time Altitude Azimuth Distance (km) Brightness Sun altitude
Exits shadow 06:24:54 10° 297° (WNW) 2,521 9.5 -8.6°
Maximum altitude 06:28:48 19° 255° (WSW) 1,953 9.2 -8.0°
Drops below altitude 10° 06:32:45 10° 211° (SSW) 2,512 10.1 -7.4°
Sets 06:35:53 0° 194° (SSW) 3,443 11.0 -6.9°
